ATLAS 5 CENTAUR DEB, 43976

Orbit data source: Space-Track

ATLAS 5 CENTAUR DEB, 43976 is space debris in HEO originally from a launch on Wed, 17 Sep 2014 UTC launched from the Air Force Eastern Test Range (AFETR). Debris objects in space refer to the collection of defunct objects orbiting the Earth. Examples of debris include non-operational satellites, rocket bodies, and fragments generated from explosions, collisions, or faulty payload assembly.

Loading next visibility...
Identifier
43976, 2014-055AF
Orbit
HEO
Country
Flag of USUS
Related business
Flag of USUnited Launch Alliance/Lockheed Martin (US)
Manufacturer
Unknown
Mission
Spacecraft
Bus & Motor
Unknown
Mass
Unknown
Launch date (UTC)
2014-09-17 (12 years ago)
Launch vehicle
Unknown
Launch site
Air Force Eastern Test Range (AFETR)
Object type
Payload
Rocket body
Debris
Shape & HBR
Unknown shape, 1.1 m
Radar Cross Section
Small (<0.1 m²)

Expand to show TLE details & history
Last TLE update: 2 days ago

TLE from 2 days ago
0 ATLAS 5 CENTAUR DEB
1 43976U 14055AF  26143.34540812 -.00000010  00000-0  00000-0 0  9999
2 43976  19.8365 151.3957 4772628 147.6081 253.7080  1.83492350 51744
Epoch: 2026-05-23T08:17Z
TLE epoch observation values (Epoch: 2026-05-23T08:17:23.261Z)
Latitude
-0.00001°
Longitude
146.12263°
Altitude
30,039.42 km
Speed
2.784 km/s
True Right ascension
10h 05m 43s
True Declination
0° 00' 00"
Sunlit
Object was in daylight at epoch
Visualization orbit readout
Latitude
Unknown
Longitude
Unknown
Altitude
Unknown
Speed
Unknown
Apparent Right ascension
Unknown
Apparent Declination
Unknown
Sunlit
N/A
Visualization observer readout
Local Sidereal Time
18:36:00
Azimuth
Unknown
Elevation
Unknown
Doppler factor
Unknown
Orbital elements
Apogee altitude
35,258.654 km
Perigee altitude
8,355.26 km
Semi-major axis
28,185.094 km
Eccentricity
0.47726
Inclination
19.8365°
RAAN
151.3957°
Arg. of periapsis
147.6081°
True anomaly
212.4421°
Mean anomaly
253.708°
Eccentric anomaly
232.1235°
Mean motion
0.45868 °/min
Orbital period
784.85 mins
BSTAR
0
Loading maneuver chart data...
Computing Atmospheric mass density...

Documentation

Showing up to 5 results
|